• In Hungary
  • List of Countries
  • For 7 days
  • Water Temperature
  • Satellite Maps
  • Weather Map
  • News
  • Weather Widgets
  • user-avatar
    Login

    Hourly Weather Kaya

    Today, 24 June, Sunday

    Time Temperature Precipitation Wind Pressure Humidity
    00:00 +33°C° 0 mm 4 mps 733 mmHg 54%
    01:00 +33°C° 0.3 mm 3 mps 732 mmHg 54%
    02:00 +33°C° 0.3 mm 3 mps 732 mmHg 55%
    03:00 +31°C° 0.3 mm 2 mps 732 mmHg 56%
    04:00 +31°C° 0.5 mm 3 mps 732 mmHg 59%
    05:00 +30°C° 0.5 mm 4 mps 732 mmHg 62%
    06:00 +29°C° 0.5 mm 5 mps 732 mmHg 65%
    07:00 +29°C° 2.4 mm 5 mps 732 mmHg 67%
    08:00 +29°C° 2.4 mm 4 mps 733 mmHg 68%
    09:00 +29°C° 2.4 mm 4 mps 733 mmHg 69%
    10:00 +30°C° 0.9 mm 5 mps 733 mmHg 66%
    11:00 +32°C° 0.9 mm 5 mps 733 mmHg 62%
    12:00 +33°C° 0.9 mm 5 mps 733 mmHg 59%
    13:00 +33°C° 0 mm 4 mps 732 mmHg 55%
    14:00 +34°C° 0 mm 3 mps 732 mmHg 52%
    15:00 +34°C° 0 mm 1 mps 731 mmHg 48%
    16:00 +34°C° 0 mm 1 mps 731 mmHg 48%
    17:00 +34°C° 0 mm 1 mps 731 mmHg 48%
    18:00 +34°C° 0 mm 1 mps 731 mmHg 47%
    19:00 +34°C° 0 mm 1 mps 731 mmHg 48%
    20:00 +35°C° 0 mm 2 mps 732 mmHg 48%
    21:00 +35°C° 0 mm 2 mps 732 mmHg 48%
    22:00 +34°C° 0 mm 3 mps 732 mmHg 51%
    23:00 +34°C° 0 mm 3 mps 732 mmHg 54%

    Tomorrow, 25 June, Monday

    Time Temperature Precipitation Wind Pressure Humidity
    00:00 +33°C° 0 mm 4 mps 732 mmHg 57%
    01:00 +32°C° 0 mm 4 mps 732 mmHg 60%
    02:00 +30°C° 0 mm 4 mps 732 mmHg 63%
    03:00 +30°C° 0 mm 4 mps 731 mmHg 67%
    04:00 +29°C° 0 mm 4 mps 732 mmHg 68%
    05:00 +29°C° 0 mm 4 mps 732 mmHg 69%
    06:00 +28°C° 0 mm 4 mps 732 mmHg 70%
    07:00 +29°C° 0 mm 4 mps 732 mmHg 66%
    08:00 +30°C° 0 mm 5 mps 733 mmHg 62%
    09:00 +32°C° 0 mm 5 mps 733 mmHg 58%
    10:00 +34°C° 0 mm 5 mps 733 mmHg 52%
    11:00 +35°C° 0 mm 5 mps 733 mmHg 46%
    12:00 +37°C° 0 mm 5 mps 733 mmHg 40%
    13:00 +39°C° 0 mm 5 mps 732 mmHg 37%
    14:00 +39°C° 0 mm 5 mps 732 mmHg 35%
    15:00 +40°C° 0 mm 5 mps 731 mmHg 32%
    16:00 +40°C° 0 mm 5 mps 731 mmHg 33%
    17:00 +39°C° 0 mm 5 mps 731 mmHg 34%
    18:00 +39°C° 0 mm 5 mps 731 mmHg 35%
    19:00 +37°C° 0 mm 5 mps 732 mmHg 38%
    20:00 +36°C° 0 mm 5 mps 732 mmHg 40%
    21:00 +36°C° 0 mm 5 mps 733 mmHg 42%
    22:00 +35°C° 0 mm 5 mps 733 mmHg 45%
    23:00 +35°C° 0 mm 6 mps 733 mmHg 47%

    Day after tomorrow, 26 June, Tuesday

    Time Temperature Precipitation Wind Pressure Humidity
    00:00 +34°C° 0 mm 6 mps 733 mmHg 50%
    01:00 +33°C° 0 mm 6 mps 732 mmHg 52%
    02:00 +33°C° 0 mm 6 mps 732 mmHg 55%
    03:00 +32°C° 0 mm 5 mps 732 mmHg 57%
    04:00 +32°C° 0 mm 5 mps 732 mmHg 58%
    05:00 +32°C° 0 mm 5 mps 732 mmHg 58%
    06:00 +30°C° 0 mm 5 mps 732 mmHg 59%
    07:00 +32°C° 0 mm 5 mps 733 mmHg 55%
    08:00 +33°C° 0 mm 5 mps 733 mmHg 52%
    09:00 +34°C° 0 mm 5 mps 734 mmHg 48%
    10:00 +35°C° 0 mm 4 mps 733 mmHg 45%
    11:00 +37°C° 0 mm 4 mps 733 mmHg 41%
    12:00 +38°C° 0 mm 3 mps 733 mmHg 38%
    13:00 +38°C° 0 mm 2 mps 732 mmHg 36%
    14:00 +39°C° 0 mm 1 mps 732 mmHg 34%
    15:00 +36°C° 0 mm 0 mps 731 mmHg 31%
    16:00 +39°C° 0 mm 1 mps 731 mmHg 31%
    17:00 +39°C° 0 mm 1 mps 731 mmHg 31%
    18:00 +39°C° 0 mm 1 mps 731 mmHg 30%
    19:00 +39°C° 0.1 mm 1 mps 731 mmHg 32%
    20:00 +38°C° 0.1 mm 2 mps 731 mmHg 33%
    21:00 +38°C° 0.1 mm 2 mps 731 mmHg 34%
    22:00 +37°C° 0.2 mm 2 mps 731 mmHg 37%
    23:00 +36°C° 0.2 mm 2 mps 732 mmHg 39%

    27 June, Wednesday

    Time Temperature Precipitation Wind Pressure Humidity
    00:00 +36°C° 0.2 mm 3 mps 732 mmHg 42%
    01:00 +35°C° 0 mm 4 mps 732 mmHg 45%
    02:00 +34°C° 0 mm 5 mps 731 mmHg 49%
    03:00 +34°C° 0 mm 7 mps 731 mmHg 52%
    04:00 +33°C° 0.5 mm 5 mps 731 mmHg 53%
    05:00 +33°C° 0.5 mm 4 mps 731 mmHg 54%
    06:00 +33°C° 0.5 mm 3 mps 732 mmHg 54%
    07:00 +33°C° 0.1 mm 5 mps 732 mmHg 53%
    08:00 +34°C° 0.1 mm 6 mps 732 mmHg 52%
    09:00 +34°C° 0.1 mm 8 mps 732 mmHg 51%
    10:00 +37°C° 0 mm 8 mps 732 mmHg 47%
    11:00 +38°C° 0 mm 7 mps 732 mmHg 43%
    12:00 +39°C° 0 mm 7 mps 731 mmHg 39%
    13:00 +40°C° 0 mm 6 mps 731 mmHg 37%
    14:00 +40°C° 0 mm 6 mps 730 mmHg 35%
    15:00 +41°C° 0 mm 6 mps 730 mmHg 34%
    16:00 +40°C° 0 mm 6 mps 730 mmHg 35%
    17:00 +40°C° 0 mm 6 mps 730 mmHg 37%
    18:00 +39°C° 0 mm 6 mps 730 mmHg 39%
    19:00 +38°C° 0.1 mm 7 mps 731 mmHg 43%
    20:00 +36°C° 0.1 mm 7 mps 731 mmHg 47%
    21:00 +35°C° 0.1 mm 8 mps 732 mmHg 52%
    22:00 +34°C° 0.2 mm 8 mps 732 mmHg 55%
    23:00 +33°C° 0.2 mm 7 mps 732 mmHg 58%

    28 June, Thursday

    Time Temperature Precipitation Wind Pressure Humidity
    00:00 +32°C° 0.2 mm 7 mps 732 mmHg 61%
    01:00 +32°C° 0.8 mm 7 mps 731 mmHg 62%
    02:00 +30°C° 0.8 mm 7 mps 731 mmHg 64%
    03:00 +29°C° 0.8 mm 7 mps 731 mmHg 66%
    04:00 +29°C° 0 mm 7 mps 731 mmHg 65%
    05:00 +29°C° 0 mm 7 mps 731 mmHg 65%
    06:00 +29°C° 0 mm 7 mps 732 mmHg 65%
    07:00 +30°C° 0 mm 7 mps 732 mmHg 63%
    08:00 +30°C° 0 mm 7 mps 732 mmHg 60%
    09:00 +32°C° 0 mm 7 mps 733 mmHg 58%
    10:00 +33°C° 0 mm 7 mps 733 mmHg 53%
    11:00 +35°C° 0 mm 6 mps 732 mmHg 48%
    12:00 +36°C° 0 mm 6 mps 732 mmHg 43%
    13:00 +37°C° 0 mm 5 mps 731 mmHg 40%
    14:00 +37°C° 0 mm 5 mps 731 mmHg 38%
    15:00 +38°C° 0 mm 4 mps 731 mmHg 36%
    16:00 +38°C° 0 mm 4 mps 731 mmHg 36%
    17:00 +38°C° 0 mm 4 mps 731 mmHg 36%
    18:00 +38°C° 0 mm 3 mps 731 mmHg 37%
    19:00 +37°C° 0 mm 4 mps 731 mmHg 39%
    20:00 +37°C° 0 mm 4 mps 731 mmHg 41%
    21:00 +36°C° 0 mm 5 mps 731 mmHg 43%
    22:00 +36°C° 0 mm 5 mps 731 mmHg 45%
    23:00 +35°C° 0 mm 5 mps 732 mmHg 47%

    29 June, Friday

    Time Temperature Precipitation Wind Pressure Humidity
    00:00 +35°C° 0 mm 5 mps 732 mmHg 49%
    01:00 +34°C° 0.3 mm 5 mps 732 mmHg 52%
    02:00 +33°C° 0.3 mm 6 mps 731 mmHg 56%
    03:00 +32°C° 0.3 mm 6 mps 731 mmHg 59%
    04:00 +30°C° 0.7 mm 6 mps 731 mmHg 63%
    05:00 +29°C° 0.7 mm 6 mps 732 mmHg 67%
    06:00 +28°C° 0.7 mm 6 mps 732 mmHg 71%
    07:00 +29°C° 0 mm 6 mps 732 mmHg 67%
    08:00 +30°C° 0 mm 6 mps 733 mmHg 64%
    09:00 +30°C° 0 mm 6 mps 733 mmHg 60%
    10:00 +32°C° 0 mm 6 mps 733 mmHg 55%
    11:00 +34°C° 0 mm 5 mps 732 mmHg 50%
    12:00 +35°C° 0 mm 5 mps 732 mmHg 45%
    13:00 +36°C° 0 mm 5 mps 731 mmHg 42%
    14:00 +36°C° 0 mm 4 mps 731 mmHg 40%
    15:00 +37°C° 0 mm 4 mps 730 mmHg 37%
    16:00 +37°C° 0 mm 3 mps 730 mmHg 37%
    17:00 +37°C° 0 mm 3 mps 730 mmHg 37%
    18:00 +37°C° 0 mm 2 mps 731 mmHg 36%
    19:00 +36°C° 0 mm 3 mps 731 mmHg 38%
    20:00 +36°C° 0 mm 3 mps 731 mmHg 40%
    21:00 +35°C° 0 mm 3 mps 732 mmHg 42%
    22:00 +35°C° 0 mm 3 mps 732 mmHg 45%
    23:00 +34°C° 0 mm 4 mps 732 mmHg 47%
    Show more